sat.trackr.live / text

‹ back to catalog

STARLINK-35654

NORAD 66483 · 2025-262AD

PAYLOAD ACTIVE UNKNOWN

§ Identity

Operator
Country
US
Launch date
2025-11-15
Launch site
AFETR
Launch vehicle
Mass (kg)
RCS (m²)

Purposes: comms

External: N2YO · Heavens-Above · Gunter

§ Orbital elements

Epoch: 2026-05-25T05:16:16.481280Z

Period
94.27 min
Inclination
43.0009°
Eccentricity
0.0001806
Mean motion
15.27596390 rev/d
Perigee alt
481.8 km
Apogee alt
484.2 km
Semi-major
6,861.1 km
B*
7.9585e-4
RAAN
223.7070°
Arg perigee
276.6748°
Mean anomaly
83.3898°
Rev number
3,061

§ Raw data

STARLINK-356541 66483U 25262AD  26145.21963520  .00021714  00000+0  79585-3 0  99912 66483  43.0009 223.7070 0001806 276.6748  83.3898 15.27596390 30617

JSON: /api/v1/satellites/66483 · /tle

For live sub-satellite position, see the globe view (requires WebGL).

§ Visibility from observer

Set your observer location to see the next 7 days of passes ≥ 10°. The values pass through the URL so the page stays shareable.

No JS? Fill the form by hand. The geolocation button needs JavaScript.